Location: Caltech
(34.1382°N, 118.1253°W)
Time: 13:49:39
(UTC-07:00)

ALOS - Visible Passes

Search period start: 27 July 2017 00:00
Search period end: 06 August 2017 00:00
Orbit: 684 x 686 km, 97.8° (Epoch: 26 July)

Date Brightness Start Highest point End Pass type
(mag) Time Alt. Az. Time Alt. Az. Time Alt. Az.
28 Jul 4.9 20:41:43 10° SW 20:45:00 19° W 20:48:19 10° NW visible
30 Jul 4.1 20:18:17 10° SSW 20:22:29 33° W 20:26:42 10° NNW visible
31 Jul 5.2 20:58:13 10° WSW 21:00:14 13° W 21:02:16 10° WNW visible
02 Aug 4.8 20:34:02 10° SSW 20:37:40 22° W 20:41:19 10° NW visible
04 Aug 3.8 20:10:48 10° SSW 20:15:09 39° W 20:19:32 10° NNW visible
05 Aug 5.1 20:50:12 10° SW 20:52:53 15° W 20:55:35 10° WNW visible
